• Em Portugal
  • Lista de países
  • Para 7 dias
  • Temperatura da água
  • Mapas de satélite
  • Mapa do tempo
  • Widgets de tempo
  • user-avatar
    Iniciar Sessão

    Previsão horária em Glinno

    Hoje, 23 Setembro, Domingo

    Tempo Temperatura Precipitação Vento Pressão Humidade
    00:00 +10°C° 0 mm 3 m/s 714 mmHg 67%
    01:00 +9°C° 0 mm 5 m/s 713 mmHg 65%
    02:00 +10°C° 0 mm 4 m/s 713 mmHg 69%
    03:00 +8°C° 0 mm 4 m/s 713 mmHg 72%
    04:00 +9°C° 0 mm 3 m/s 713 mmHg 75%
    05:00 +9°C° 0 mm 3 m/s 713 mmHg 75%
    06:00 +8°C° 0 mm 4 m/s 712 mmHg 75%
    07:00 +10°C° 0 mm 4 m/s 712 mmHg 74%
    08:00 +11°C° 0 mm 4 m/s 712 mmHg 70%
    09:00 +11°C° 0 mm 4 m/s 712 mmHg 65%
    10:00 +12°C° 0 mm 4 m/s 712 mmHg 61%
    11:00 +12°C° 0 mm 4 m/s 712 mmHg 63%
    12:00 +12°C° 0 mm 4 m/s 711 mmHg 64%
    13:00 +12°C° 0 mm 4 m/s 710 mmHg 64%
    14:00 +12°C° 0.2 mm 4 m/s 709 mmHg 70%
    15:00 +11°C° 0.2 mm 4 m/s 708 mmHg 75%
    16:00 +10°C° 0.2 mm 5 m/s 706 mmHg 81%
    17:00 +11°C° 0.6 mm 6 m/s 705 mmHg 83%
    18:00 +11°C° 0.6 mm 7 m/s 704 mmHg 84%
    19:00 +12°C° 0.6 mm 8 m/s 703 mmHg 85%
    20:00 +11°C° 2 mm 6 m/s 703 mmHg 88%
    21:00 +10°C° 2 mm 5 m/s 703 mmHg 90%
    22:00 +10°C° 2 mm 4 m/s 703 mmHg 92%
    23:00 +8°C° 0.7 mm 5 m/s 704 mmHg 90%

    Amanhã, 24 Setembro, Segunda-feira

    Tempo Temperatura Precipitação Vento Pressão Humidade
    00:00 +6°C° 0.7 mm 7 m/s 705 mmHg 89%
    01:00 +5°C° 0.7 mm 8 m/s 707 mmHg 87%
    02:00 +5°C° 0.1 mm 8 m/s 708 mmHg 87%
    03:00 +5°C° 0.1 mm 7 m/s 710 mmHg 86%
    04:00 +4°C° 0.1 mm 7 m/s 711 mmHg 86%
    05:00 +4°C° 0 mm 7 m/s 712 mmHg 84%
    06:00 +4°C° 0 mm 8 m/s 712 mmHg 82%
    07:00 +4°C° 0 mm 8 m/s 713 mmHg 80%
    08:00 +3°C° 0 mm 9 m/s 714 mmHg 76%
    09:00 +5°C° 0 mm 9 m/s 715 mmHg 73%
    10:00 +5°C° 0 mm 9 m/s 716 mmHg 69%
    11:00 +6°C° 0.1 mm 9 m/s 716 mmHg 64%
    12:00 +7°C° 0.1 mm 9 m/s 717 mmHg 59%
    13:00 +8°C° 0.1 mm 10 m/s 717 mmHg 55%
    14:00 +7°C° 0.1 mm 9 m/s 717 mmHg 54%
    15:00 +7°C° 0.1 mm 9 m/s 717 mmHg 53%
    16:00 +7°C° 0.1 mm 9 m/s 717 mmHg 52%
    17:00 +6°C° 0 mm 8 m/s 718 mmHg 56%
    18:00 +5°C° 0 mm 6 m/s 718 mmHg 60%
    19:00 +5°C° 0 mm 5 m/s 718 mmHg 64%
    20:00 +3°C° 0 mm 5 m/s 719 mmHg 66%
    21:00 +3°C° 0 mm 5 m/s 719 mmHg 67%
    22:00 +2°C° 0 mm 5 m/s 720 mmHg 69%
    23:00 +3°C° 0 mm 4 m/s 720 mmHg 71%

    Depois de amanhã, 25 Setembro, Terça-feira

    Tempo Temperatura Precipitação Vento Pressão Humidade
    00:00 +3°C° 0 mm 4 m/s 721 mmHg 73%
    01:00 +1°C° 0 mm 4 m/s 721 mmHg 74%
    02:00 +1°C° 0 mm 4 m/s 721 mmHg 76%
    03:00 +1°C° 0 mm 4 m/s 722 mmHg 78%
    04:00 0°C° 0 mm 4 m/s 722 mmHg 80%
    05:00 0°C° 0 mm 4 m/s 723 mmHg 80%
    06:00 +1°C° 0 mm 4 m/s 723 mmHg 79%
    07:00 +1°C° 0 mm 4 m/s 724 mmHg 79%
    08:00 +3°C° 0 mm 4 m/s 724 mmHg 72%
    09:00 +5°C° 0 mm 4 m/s 725 mmHg 65%
    10:00 +7°C° 0 mm 5 m/s 725 mmHg 59%
    11:00 +7°C° 0 mm 4 m/s 725 mmHg 55%
    12:00 +8°C° 0 mm 4 m/s 725 mmHg 52%
    13:00 +10°C° 0 mm 4 m/s 725 mmHg 49%
    14:00 +10°C° 0 mm 4 m/s 725 mmHg 49%
    15:00 +10°C° 0 mm 4 m/s 725 mmHg 49%
    16:00 +10°C° 0 mm 4 m/s 725 mmHg 49%
    17:00 +8°C° 0 mm 3 m/s 726 mmHg 55%
    18:00 +5°C° 0 mm 3 m/s 726 mmHg 60%
    19:00 +5°C° 0 mm 2 m/s 726 mmHg 66%
    20:00 +4°C° 0 mm 2 m/s 726 mmHg 67%
    21:00 +4°C° 0 mm 2 m/s 726 mmHg 68%
    22:00 +3°C° 0 mm 2 m/s 727 mmHg 69%
    23:00 +4°C° 0 mm 1 m/s 726 mmHg 69%

    26 Setembro, Quarta-feira

    Tempo Temperatura Precipitação Vento Pressão Humidade
    00:00 +4°C° 0 mm 1 m/s 726 mmHg 70%
    01:00 +4°C° 0 mm 1 m/s 726 mmHg 70%
    02:00 +3°C° 0 mm 1 m/s 726 mmHg 71%
    03:00 +3°C° 0 mm 1 m/s 726 mmHg 71%
    04:00 +3°C° 0 mm 1 m/s 726 mmHg 72%
    05:00 +2°C° 0 mm 2 m/s 726 mmHg 71%
    06:00 +3°C° 0 mm 2 m/s 726 mmHg 70%
    07:00 +3°C° 0 mm 2 m/s 725 mmHg 70%
    08:00 +4°C° 0 mm 3 m/s 725 mmHg 62%
    09:00 +8°C° 0 mm 3 m/s 726 mmHg 55%
    10:00 +10°C° 0 mm 4 m/s 726 mmHg 47%
    11:00 +10°C° 0 mm 4 m/s 725 mmHg 45%
    12:00 +11°C° 0 mm 4 m/s 725 mmHg 43%
    13:00 +12°C° 0 mm 4 m/s 724 mmHg 40%
    14:00 +12°C° 0 mm 4 m/s 724 mmHg 42%
    15:00 +12°C° 0 mm 4 m/s 723 mmHg 43%
    16:00 +12°C° 0 mm 4 m/s 723 mmHg 45%
    17:00 +11°C° 0 mm 4 m/s 722 mmHg 48%
    18:00 +9°C° 0 mm 3 m/s 722 mmHg 52%
    19:00 +8°C° 0 mm 3 m/s 722 mmHg 56%
    20:00 +8°C° 0 mm 3 m/s 722 mmHg 57%
    21:00 +8°C° 0 mm 3 m/s 722 mmHg 58%
    22:00 +7°C° 0 mm 3 m/s 721 mmHg 58%
    23:00 +7°C° 0 mm 3 m/s 721 mmHg 59%

    27 Setembro, Quinta-feira

    Tempo Temperatura Precipitação Vento Pressão Humidade
    00:00 +7°C° 0 mm 3 m/s 721 mmHg 59%
    01:00 +7°C° 0 mm 3 m/s 721 mmHg 60%
    02:00 +7°C° 0 mm 3 m/s 721 mmHg 60%
    03:00 +7°C° 0 mm 3 m/s 720 mmHg 60%
    04:00 +7°C° 0 mm 3 m/s 720 mmHg 61%
    05:00 +7°C° 0 mm 3 m/s 720 mmHg 60%
    06:00 +8°C° 0 mm 3 m/s 720 mmHg 60%
    07:00 +8°C° 0 mm 3 m/s 720 mmHg 60%
    08:00 +10°C° 0 mm 3 m/s 720 mmHg 56%
    09:00 +12°C° 0 mm 3 m/s 721 mmHg 53%
    10:00 +15°C° 0 mm 4 m/s 721 mmHg 49%
    11:00 +17°C° 0 mm 4 m/s 721 mmHg 49%
    12:00 +18°C° 0 mm 4 m/s 720 mmHg 49%
    13:00 +19°C° 0 mm 4 m/s 720 mmHg 49%
    14:00 +19°C° 0 mm 4 m/s 719 mmHg 50%
    15:00 +19°C° 0 mm 3 m/s 719 mmHg 52%
    16:00 +19°C° 0 mm 3 m/s 718 mmHg 53%
    17:00 +17°C° 0 mm 3 m/s 718 mmHg 57%
    18:00 +14°C° 0 mm 3 m/s 717 mmHg 61%
    19:00 +13°C° 0 mm 2 m/s 717 mmHg 65%
    20:00 +12°C° 0 mm 3 m/s 717 mmHg 64%
    21:00 +12°C° 0 mm 3 m/s 717 mmHg 64%
    22:00 +11°C° 0 mm 3 m/s 716 mmHg 63%
    23:00 +11°C° 0 mm 3 m/s 716 mmHg 63%

    28 Setembro, Sexta-feira

    Tempo Temperatura Precipitação Vento Pressão Humidade
    00:00 +11°C° 0 mm 3 m/s 716 mmHg 63%
    01:00 +10°C° 0 mm 3 m/s 715 mmHg 63%
    02:00 +10°C° 0 mm 3 m/s 715 mmHg 65%
    03:00 +9°C° 0 mm 3 m/s 715 mmHg 66%
    04:00 +9°C° 0 mm 2 m/s 715 mmHg 67%
    05:00 +9°C° 0 mm 2 m/s 715 mmHg 68%
    06:00 +9°C° 0 mm 2 m/s 715 mmHg 69%
    07:00 +9°C° 0 mm 2 m/s 715 mmHg 69%
    08:00 +10°C° 0 mm 2 m/s 716 mmHg 69%
    09:00 +12°C° 0 mm 3 m/s 716 mmHg 69%
    10:00 +13°C° 0 mm 3 m/s 716 mmHg 69%
    11:00 +12°C° 0 mm 3 m/s 716 mmHg 73%
    12:00 +12°C° 0 mm 3 m/s 716 mmHg 77%
    13:00 +11°C° 0 mm 3 m/s 716 mmHg 81%
    14:00 +12°C° 0 mm 2 m/s 716 mmHg 80%
    15:00 +12°C° 0 mm 2 m/s 716 mmHg 80%
    16:00 +10°C° 0 mm 2 m/s 716 mmHg 80%
    17:00 +10°C° 0 mm 2 m/s 716 mmHg 81%
    18:00 +9°C° 0 mm 2 m/s 717 mmHg 83%
    19:00 +9°C° 0 mm 2 m/s 717 mmHg 84%
    20:00 +9°C° 0 mm 2 m/s 717 mmHg 85%
    21:00 +8°C° 0 mm 2 m/s 717 mmHg 85%
    22:00 +8°C° 0 mm 2 m/s 718 mmHg 85%
    23:00 +7°C° 0 mm 2 m/s 718 mmHg 85%
    Mostrar mais